Time,TemperatureF,DewpointF,PressureIn,WindDirection,WindDirectionDegrees,WindSpeedMPH,WindSpeedGustMPH,Humidity,HourlyPrecipIn,Conditions,Clouds,dailyrainin,SoftwareType,DateUTC
2013-06-21 00:01:00,63.5,42.2,29.95,ESE,112,1.3,3.6,46,0.00,,,0.00,WUHU21623XXSP,2013-06-21 07:01:00,
2013-06-21 00:06:00,63.3,41.5,29.95,ESE,112,1.8,4.3,45,0.00,,,0.00,WUHU21623XXSP,2013-06-21 07:06:00,
2013-06-21 00:11:00,63.3,41.5,29.95,ESE,112,1.3,4.3,45,0.00,,,0.00,WUHU21623XXSP,2013-06-21 07:11:00,
2013-06-21 00:16:00,63.1,41.3,29.95,ESE,112,2.0,4.0,45,0.00,,,0.00,WUHU21623XXSP,2013-06-21 07:16:00,
2013-06-21 00:21:00,63.1,41.3,29.95,ESE,112,1.6,4.0,45,0.00,,,0.00,WUHU21623XXSP,2013-06-21 07:21:00,
2013-06-21 00:26:00,63.0,41.1,29.95,ESE,112,2.5,2.9,45,0.00,,,0.00,WUHU21623XXSP,2013-06-21 07:26:00,
2013-06-21 00:31:00,62.8,41.6,29.95,ESE,112,2.2,3.8,46,0.00,,,0.00,WUHU21623XXSP,2013-06-21 07:31:00,
2013-06-21 00:36:00,62.6,41.4,29.95,ESE,112,2.2,3.8,46,0.00,,,0.00,WUHU21623XXSP,2013-06-21 07:36:00,
2013-06-21 00:41:00,62.4,41.2,29.95,ESE,112,2.2,3.8,46,0.00,,,0.00,WUHU21623XXSP,2013-06-21 07:41:00,
2013-06-21 00:46:00,62.4,41.2,29.95,ESE,112,0.9,3.6,46,0.00,,,0.00,WUHU21623XXSP,2013-06-21 07:46:00,
2013-06-21 00:51:00,62.4,41.2,29.95,ESE,112,0.9,3.6,46,0.00,,,0.00,WUHU21623XXSP,2013-06-21 07:51:00,
2013-06-21 00:56:00,62.4,41.2,29.95,ESE,112,1.8,3.4,46,0.00,,,0.00,WUHU21623XXSP,2013-06-21 07:56:00,
2013-06-21 01:01:00,62.4,41.2,29.95,ESE,112,1.1,3.6,46,0.00,,,0.00,WUHU21623XXSP,2013-06-21 08:01:00,
2013-06-21 01:06:00,62.2,41.1,29.95,ESE,112,2.5,4.0,46,0.00,,,0.00,WUHU21623XXSP,2013-06-21 08:06:00,
2013-06-21 01:11:00,62.2,41.1,29.95,ESE,112,2.7,4.0,46,0.00,,,0.00,WUHU21623XXSP,2013-06-21 08:11:00,
2013-06-21 01:16:00,62.1,40.9,29.95,ESE,112,1.3,3.8,46,0.00,,,0.00,WUHU21623XXSP,2013-06-21 08:16:00,
2013-06-21 01:21:00,62.1,40.9,29.95,SE,135,4.0,4.0,46,0.00,,,0.00,WUHU21623XXSP,2013-06-21 08:21:00,
2013-06-21 01:26:00,62.1,40.9,29.95,SE,135,1.3,4.3,46,0.00,,,0.00,WUHU21623XXSP,2013-06-21 08:26:00,
2013-06-21 01:31:00,62.1,40.9,29.94,SE,135,1.6,4.5,46,0.00,,,0.00,WUHU21623XXSP,2013-06-21 08:31:00,
2013-06-21 01:36:00,61.9,40.7,29.94,SE,135,3.6,4.5,46,0.00,,,0.00,WUHU21623XXSP,2013-06-21 08:36:00,
2013-06-21 01:41:00,61.9,41.3,29.95,ESE,112,1.3,4.0,47,0.00,,,0.00,WUHU21623XXSP,2013-06-21 08:41:00,
2013-06-21 01:46:00,61.7,41.2,29.94,ESE,112,2.2,4.3,47,0.00,,,0.00,WUHU21623XXSP,2013-06-21 08:46:00,
2013-06-21 01:51:00,61.7,41.2,29.95,ESE,112,3.1,4.3,47,0.00,,,0.00,WUHU21623XXSP,2013-06-21 08:51:00,
2013-06-21 01:56:00,61.7,41.2,29.95,ESE,112,3.8,4.5,47,0.00,,,0.00,WUHU21623XXSP,2013-06-21 08:56:00,
2013-06-21 02:01:00,61.5,41.0,29.94,ESE,112,2.5,4.9,47,0.00,,,0.00,WUHU21623XXSP,2013-06-21 09:01:00,
2013-06-21 02:06:00,61.5,41.0,29.95,ESE,112,2.0,4.9,47,0.00,,,0.00,WUHU21623XXSP,2013-06-21 09:06:00,
2013-06-21 02:11:00,61.3,40.8,29.94,ESE,112,2.9,5.4,47,0.00,,,0.00,WUHU21623XXSP,2013-06-21 09:11:00,
2013-06-21 02:16:00,61.3,40.8,29.94,ESE,112,1.6,5.4,47,0.00,,,0.00,WUHU21623XXSP,2013-06-21 09:16:00,
2013-06-21 02:21:00,61.2,41.3,29.94,ESE,112,3.8,4.9,48,0.00,,,0.00,WUHU21623XXSP,2013-06-21 09:21:00,
2013-06-21 02:26:00,61.2,41.3,29.95,ESE,112,3.4,4.9,48,0.00,,,0.00,WUHU21623XXSP,2013-06-21 09:26:00,
2013-06-21 02:31:00,61.0,41.1,29.95,ESE,112,3.4,5.1,48,0.00,,,0.00,WUHU21623XXSP,2013-06-21 09:31:00,
2013-06-21 02:36:00,61.0,41.1,29.95,ESE,112,3.1,5.1,48,0.00,,,0.00,WUHU21623XXSP,2013-06-21 09:36:00,
2013-06-21 02:41:00,60.6,41.3,29.95,ESE,112,1.6,4.5,49,0.00,,,0.00,WUHU21623XXSP,2013-06-21 09:41:00,
2013-06-21 02:46:00,60.6,41.3,29.95,ESE,112,3.6,3.6,49,0.00,,,0.00,WUHU21623XXSP,2013-06-21 09:46:00,
2013-06-21 02:51:00,60.6,41.3,29.95,SE,135,1.3,4.0,49,0.00,,,0.00,WUHU21623XXSP,2013-06-21 09:51:00,
2013-06-21 02:56:00,60.4,41.2,29.95,ESE,112,1.8,4.0,49,0.00,,,0.00,WUHU21623XXSP,2013-06-21 09:56:00,
2013-06-21 03:01:00,60.4,41.2,29.95,ESE,112,1.1,3.8,49,0.00,,,0.00,WUHU21623XXSP,2013-06-21 10:01:00,
2013-06-21 03:06:00,60.4,41.2,29.95,ESE,112,4.7,4.7,49,0.00,,,0.00,WUHU21623XXSP,2013-06-21 10:06:00,
2013-06-21 03:11:00,60.3,41.0,29.94,SE,135,2.0,4.7,49,0.00,,,0.00,WUHU21623XXSP,2013-06-21 10:11:00,
2013-06-21 03:16:00,60.1,40.9,29.94,SE,135,3.6,4.7,49,0.00,,,0.00,WUHU21623XXSP,2013-06-21 10:16:00,
2013-06-21 03:21:00,60.1,40.9,29.94,ESE,112,2.9,3.6,49,0.00,,,0.00,WUHU21623XXSP,2013-06-21 10:21:00,
2013-06-21 03:26:00,60.1,40.9,29.94,SE,135,1.6,3.6,49,0.00,,,0.00,WUHU21623XXSP,2013-06-21 10:26:00,
2013-06-21 03:31:00,60.1,40.9,29.94,SE,135,1.8,3.8,49,0.00,,,0.00,WUHU21623XXSP,2013-06-21 10:31:00,
2013-06-21 03:36:00,60.1,40.9,29.94,ESE,112,1.3,3.8,49,0.00,,,0.00,WUHU21623XXSP,2013-06-21 10:36:00,
2013-06-21 03:41:00,60.1,40.9,29.94,SE,135,1.6,2.9,49,0.00,,,0.00,WUHU21623XXSP,2013-06-21 10:41:00,
2013-06-21 03:46:00,60.1,40.9,29.93,SE,135,1.3,3.1,49,0.00,,,0.00,WUHU21623XXSP,2013-06-21 10:46:00,
2013-06-21 03:51:00,60.3,41.0,29.93,ESE,112,0.9,3.1,49,0.00,,,0.00,WUHU21623XXSP,2013-06-21 10:51:00,
2013-06-21 03:56:00,60.4,41.2,29.93,ESE,112,0.9,3.1,49,0.00,,,0.00,WUHU21623XXSP,2013-06-21 10:56:00,
2013-06-21 04:01:00,60.4,40.6,29.94,ESE,112,0.0,2.7,48,0.00,,,0.00,WUHU21623XXSP,2013-06-21 11:01:00,
2013-06-21 04:06:00,60.4,40.6,29.93,SE,135,0.7,3.6,48,0.00,,,0.00,WUHU21623XXSP,2013-06-21 11:06:00,
2013-06-21 04:11:00,60.6,40.8,29.94,SE,135,0.7,3.6,48,0.00,,,0.00,WUHU21623XXSP,2013-06-21 11:11:00,
2013-06-21 04:16:00,60.6,40.8,29.93,ESE,112,0.0,2.9,48,0.00,,,0.00,WUHU21623XXSP,2013-06-21 11:16:00,
2013-06-21 04:21:00,60.6,40.8,29.93,SE,135,0.0,2.2,48,0.00,,,0.00,WUHU21623XXSP,2013-06-21 11:21:00,
2013-06-21 04:26:00,60.6,40.8,29.93,ESE,112,0.0,1.6,48,0.00,,,0.00,WUHU21623XXSP,2013-06-21 11:26:00,
2013-06-21 04:31:00,60.6,40.8,29.93,ESE,112,0.0,1.6,48,0.00,,,0.00,WUHU21623XXSP,2013-06-21 11:31:00,
2013-06-21 04:36:00,60.6,40.8,29.93,SE,135,0.0,4.5,48,0.00,,,0.00,WUHU21623XXSP,2013-06-21 11:36:00,
2013-06-21 04:41:00,60.6,40.8,29.93,SE,135,3.1,4.7,48,0.00,,,0.00,WUHU21623XXSP,2013-06-21 11:41:00,
2013-06-21 04:46:00,60.6,40.8,29.93,ESE,112,2.7,4.7,48,0.00,,,0.00,WUHU21623XXSP,2013-06-21 11:46:00,
2013-06-21 04:51:00,60.6,40.8,29.93,ESE,112,0.0,4.9,48,0.00,,,0.00,WUHU21623XXSP,2013-06-21 11:51:00,
2013-06-21 04:56:00,60.6,41.3,29.92,ESE,112,1.1,4.9,49,0.00,,,0.00,WUHU21623XXSP,2013-06-21 11:56:00,
2013-06-21 05:01:00,60.6,41.3,29.93,SE,135,0.4,2.7,49,0.00,,,0.00,WUHU21623XXSP,2013-06-21 12:01:00,
2013-06-21 05:06:00,60.6,41.3,29.93,ESE,112,0.0,2.7,49,0.00,,,0.00,WUHU21623XXSP,2013-06-21 12:06:00,
2013-06-21 05:11:00,60.6,41.3,29.93,SE,135,0.0,2.0,49,0.00,,,0.00,WUHU21623XXSP,2013-06-21 12:11:00,
2013-06-21 05:16:00,60.6,41.3,29.93,ESE,112,0.0,2.0,49,0.00,,,0.00,WUHU21623XXSP,2013-06-21 12:16:00,
2013-06-21 05:21:00,60.6,41.3,29.93,ESE,112,0.9,2.5,49,0.00,,,0.00,WUHU21623XXSP,2013-06-21 12:21:00,
2013-06-21 05:26:00,60.4,41.2,29.92,ESE,112,0.0,2.5,49,0.00,,,0.00,WUHU21623XXSP,2013-06-21 12:26:00,
2013-06-21 05:31:00,60.4,41.2,29.93,ESE,112,0.0,2.9,49,0.00,,,0.00,WUHU21623XXSP,2013-06-21 12:31:00,
2013-06-21 05:36:00,60.4,41.2,29.93,ESE,112,0.0,3.1,49,0.00,,,0.00,WUHU21623XXSP,2013-06-21 12:36:00,
2013-06-21 05:41:00,60.4,41.2,29.93,SE,135,0.7,3.1,49,0.00,,,0.00,WUHU21623XXSP,2013-06-21 12:41:00,
2013-06-21 05:46:00,60.4,41.2,29.93,SE,135,0.0,2.7,49,0.00,,,0.00,WUHU21623XXSP,2013-06-21 12:46:00,
2013-06-21 05:51:00,60.4,41.2,29.93,SSE,157,1.1,2.2,49,0.00,,,0.00,WUHU21623XXSP,2013-06-21 12:51:00,
2013-06-21 05:56:00,60.3,41.0,29.93,SE,135,0.0,2.0,49,0.00,,,0.00,WUHU21623XXSP,2013-06-21 12:56:00,
2013-06-21 06:01:00,60.1,41.4,29.93,ESE,112,0.0,1.6,50,0.00,,,0.00,WUHU21623XXSP,2013-06-21 13:01:00,
2013-06-21 06:06:00,60.1,41.4,29.93,ESE,112,0.0,3.1,50,0.00,,,0.00,WUHU21623XXSP,2013-06-21 13:06:00,
2013-06-21 06:11:00,59.9,41.3,29.93,ESE,112,1.1,3.1,50,0.00,,,0.00,WUHU21623XXSP,2013-06-21 13:11:00,
2013-06-21 06:16:00,59.9,41.3,29.93,ESE,112,0.0,1.6,50,0.00,,,0.00,WUHU21623XXSP,2013-06-21 13:16:00,
2013-06-21 06:21:00,59.7,41.6,29.94,ESE,112,0.0,0.0,51,0.00,,,0.00,WUHU21623XXSP,2013-06-21 13:21:00,
2013-06-21 06:26:00,59.5,41.4,29.94,SE,135,0.0,0.0,51,0.00,,,0.00,WUHU21623XXSP,2013-06-21 13:26:00,
2013-06-21 06:31:00,59.5,41.9,29.93,SE,135,0.0,0.0,52,0.00,,,0.00,WUHU21623XXSP,2013-06-21 13:31:00,
2013-06-21 06:36:00,59.5,41.9,29.93,SSE,157,0.0,1.6,52,0.00,,,0.00,WUHU21623XXSP,2013-06-21 13:36:00,
2013-06-21 06:41:00,59.5,42.4,29.93,SSE,157,0.0,1.6,53,0.00,,,0.00,WUHU21623XXSP,2013-06-21 13:41:00,
2013-06-21 06:46:00,59.5,42.4,29.94,SSE,157,0.0,0.0,53,0.00,,,0.00,WUHU21623XXSP,2013-06-21 13:46:00,
2013-06-21 06:51:00,59.4,42.2,29.94,SE,135,0.0,1.8,53,0.00,,,0.00,WUHU21623XXSP,2013-06-21 13:51:00,
2013-06-21 06:56:00,59.2,42.5,29.94,SE,135,0.0,1.8,54,0.00,,,0.00,WUHU21623XXSP,2013-06-21 13:56:00,
2013-06-21 07:01:00,59.2,43.0,29.94,SE,135,0.0,0.0,55,0.00,,,0.00,WUHU21623XXSP,2013-06-21 14:01:00,
2013-06-21 07:06:00,59.2,43.0,29.94,SE,135,0.0,0.0,55,0.00,,,0.00,WUHU21623XXSP,2013-06-21 14:06:00,
2013-06-21 07:11:00,59.4,43.1,29.95,SE,135,0.0,0.0,55,0.00,,,0.00,WUHU21623XXSP,2013-06-21 14:11:00,
2013-06-21 07:16:00,59.5,43.8,29.95,SE,135,0.0,0.0,56,0.00,,,0.00,WUHU21623XXSP,2013-06-21 14:16:00,
2013-06-21 07:21:00,59.7,44.4,29.95,SE,135,0.0,0.0,57,0.00,,,0.00,WUHU21623XXSP,2013-06-21 14:21:00,
2013-06-21 07:26:00,60.1,44.8,29.95,SE,135,0.0,0.0,57,0.00,,,0.00,WUHU21623XXSP,2013-06-21 14:26:00,
2013-06-21 07:31:00,60.6,45.3,29.95,SE,135,0.0,0.0,57,0.00,,,0.00,WUHU21623XXSP,2013-06-21 14:31:00,
2013-06-21 07:36:00,61.5,46.1,29.95,SE,135,0.0,0.0,57,0.00,,,0.00,WUHU21623XXSP,2013-06-21 14:36:00,
2013-06-21 07:41:00,62.4,46.5,29.95,SE,135,0.0,0.0,56,0.00,,,0.00,WUHU21623XXSP,2013-06-21 14:41:00,
2013-06-21 07:46:00,63.5,47.4,29.95,ESE,112,0.0,0.0,56,0.00,,,0.00,WUHU21623XXSP,2013-06-21 14:46:00,
2013-06-21 07:51:00,64.6,47.9,29.95,ESE,112,0.0,0.0,55,0.00,,,0.00,WUHU21623XXSP,2013-06-21 14:51:00,
2013-06-21 07:56:00,65.3,48.2,29.95,ESE,112,0.0,0.0,54,0.00,,,0.00,WUHU21623XXSP,2013-06-21 14:56:00,
2013-06-21 08:01:00,66.6,48.9,29.95,ESE,112,0.0,0.0,53,0.00,,,0.00,WUHU21623XXSP,2013-06-21 15:01:00,
2013-06-21 08:06:00,67.5,49.7,29.95,ESE,112,0.0,0.0,53,0.00,,,0.00,WUHU21623XXSP,2013-06-21 15:06:00,
2013-06-21 08:11:00,69.1,50.2,29.95,ESE,112,0.0,0.0,51,0.00,,,0.00,WUHU21623XXSP,2013-06-21 15:11:00,
2013-06-21 08:16:00,70.5,51.0,29.95,ESE,112,0.0,0.0,50,0.00,,,0.00,WUHU21623XXSP,2013-06-21 15:16:00,
2013-06-21 08:21:00,72.3,51.4,29.95,ESE,112,0.0,0.0,48,0.00,,,0.00,WUHU21623XXSP,2013-06-21 15:21:00,
2013-06-21 08:26:00,73.2,51.1,29.95,ESE,112,0.0,0.0,46,0.00,,,0.00,WUHU21623XXSP,2013-06-21 15:26:00,
2013-06-21 08:31:00,74.5,51.0,29.96,ESE,112,0.0,0.0,44,0.00,,,0.00,WUHU21623XXSP,2013-06-21 15:31:00,
2013-06-21 08:36:00,75.4,51.3,29.96,ESE,112,0.0,0.0,43,0.00,,,0.00,WUHU21623XXSP,2013-06-21 15:36:00,
2013-06-21 08:41:00,75.7,49.8,29.96,NNE,22,0.0,0.0,40,0.00,,,0.00,WUHU21623XXSP,2013-06-21 15:41:00,
2013-06-21 08:46:00,75.7,49.8,29.96,NNE,22,0.0,0.0,40,0.00,,,0.00,WUHU21623XXSP,2013-06-21 15:46:00,
2013-06-21 08:51:00,75.9,49.9,29.96,NNE,22,0.0,0.0,40,0.00,,,0.00,WUHU21623XXSP,2013-06-21 15:51:00,
2013-06-21 08:56:00,76.3,49.5,29.96,NNE,22,0.0,0.0,39,0.00,,,0.00,WUHU21623XXSP,2013-06-21 15:56:00,
2013-06-21 09:01:00,76.3,48.7,29.96,West,270,0.0,0.0,38,0.00,,,0.00,WUHU21623XXSP,2013-06-21 16:01:00,
2013-06-21 09:06:00,76.8,49.2,29.96,West,270,0.0,0.0,38,0.00,,,0.00,WUHU21623XXSP,2013-06-21 16:06:00,
2013-06-21 09:11:00,76.8,48.5,29.96,WNW,292,0.0,0.0,37,0.00,,,0.00,WUHU21623XXSP,2013-06-21 16:11:00,
2013-06-21 09:16:00,76.8,48.5,29.96,WNW,292,0.0,0.0,37,0.00,,,0.00,WUHU21623XXSP,2013-06-21 16:16:00,
2013-06-21 09:21:00,77.2,48.8,29.96,WNW,292,0.0,0.0,37,0.00,,,0.00,WUHU21623XXSP,2013-06-21 16:21:00,
2013-06-21 09:26:00,77.7,49.2,29.96,NW,315,0.0,0.0,37,0.00,,,0.00,WUHU21623XXSP,2013-06-21 16:26:00,
2013-06-21 09:31:00,78.1,49.6,29.96,WNW,292,0.0,0.0,37,0.00,,,0.00,WUHU21623XXSP,2013-06-21 16:31:00,
2013-06-21 09:36:00,79.0,49.6,29.96,WNW,292,0.0,0.0,36,0.00,,,0.00,WUHU21623XXSP,2013-06-21 16:36:00,
2013-06-21 09:42:00,79.3,49.9,29.95,ESE,112,0.0,0.0,36,0.00,,,0.00,WUHU21623XXSP,2013-06-21 16:42:00,
2013-06-21 09:47:00,79.5,50.1,29.95,NNW,337,0.0,0.0,36,0.00,,,0.00,WUHU21623XXSP,2013-06-21 16:47:00,
2013-06-21 09:52:00,79.7,50.2,29.96,NNW,337,0.0,0.9,36,0.00,,,0.00,WUHU21623XXSP,2013-06-21 16:52:00,
2013-06-21 09:57:00,79.5,49.3,29.95,WNW,292,0.0,0.9,35,0.00,,,0.00,WUHU21623XXSP,2013-06-21 16:57:00,
2013-06-21 10:02:00,79.5,49.3,29.95,WNW,292,0.0,0.9,35,0.00,,,0.00,WUHU21623XXSP,2013-06-21 17:02:00,
2013-06-21 10:07:00,79.5,49.3,29.95,NW,315,0.0,1.3,35,0.00,,,0.00,WUHU21623XXSP,2013-06-21 17:07:00,
2013-06-21 10:12:00,79.5,49.3,29.95,NW,315,0.0,1.6,35,0.00,,,0.00,WUHU21623XXSP,2013-06-21 17:12:00,
2013-06-21 10:17:00,79.7,49.5,29.95,North,0,0.7,2.0,35,0.00,,,0.00,WUHU21623XXSP,2013-06-21 17:17:00,
2013-06-21 10:22:00,79.9,49.6,29.95,NNE,22,0.0,2.0,35,0.00,,,0.00,WUHU21623XXSP,2013-06-21 17:22:00,
2013-06-21 10:27:00,80.1,49.0,29.95,WNW,292,0.0,2.7,34,0.00,,,0.00,WUHU21623XXSP,2013-06-21 17:27:00,
2013-06-21 10:33:00,80.1,49.0,29.95,ESE,112,2.5,2.7,34,0.00,,,0.00,WUHU21623XXSP,2013-06-21 17:33:00,
2013-06-21 10:38:00,80.1,49.0,29.95,SSE,157,0.0,3.6,34,0.00,,,0.00,WUHU21623XXSP,2013-06-21 17:38:00,
2013-06-21 10:43:00,80.1,47.5,29.95,ENE,67,1.3,3.8,32,0.00,,,0.00,WUHU21623XXSP,2013-06-21 17:43:00,
2013-06-21 10:46:00,80.1,47.5,29.96,NNW,337,0.0,3.8,32,0.00,,,0.00,WUHU21623XXSP,2013-06-21 17:46:00,
2013-06-21 10:48:00,80.1,47.5,29.96,NW,315,0.4,3.8,32,0.00,,,0.00,WUHU21623XXSP,2013-06-21 17:48:00,
2013-06-21 10:53:00,80.2,46.9,29.95,NNE,22,2.5,3.8,31,0.00,,,0.00,WUHU21623XXSP,2013-06-21 17:53:00,
2013-06-21 10:58:00,80.4,47.8,29.96,West,270,0.0,4.3,32,0.00,,,0.00,WUHU21623XXSP,2013-06-21 17:58:00,
2013-06-21 11:03:00,81.3,48.5,29.96,East,90,2.5,3.1,32,0.00,,,0.00,WUHU21623XXSP,2013-06-21 18:03:00,
2013-06-21 11:08:00,82.2,48.5,29.95,NNW,337,0.0,3.8,31,0.00,,,0.00,WUHU21623XXSP,2013-06-21 18:08:00,
2013-06-21 11:14:00,82.9,49.1,29.95,WNW,292,1.6,4.5,31,0.00,,,0.00,WUHU21623XXSP,2013-06-21 18:14:00,
2013-06-21 11:19:00,82.9,48.3,29.95,West,270,0.7,4.5,30,0.00,,,0.00,WUHU21623XXSP,2013-06-21 18:19:00,
2013-06-21 11:23:00,82.9,48.3,29.95,West,270,3.8,3.8,30,0.00,,,0.00,WUHU21623XXSP,2013-06-21 18:23:00,
2013-06-21 11:28:00,82.4,47.8,29.95,WNW,292,0.0,4.3,30,0.00,,,0.00,WUHU21623XXSP,2013-06-21 18:28:00,
2013-06-21 11:33:00,82.8,48.2,29.95,SSW,202,0.0,3.6,30,0.00,,,0.00,WUHU21623XXSP,2013-06-21 18:33:00,
2013-06-21 11:38:00,82.9,49.1,29.95,SSE,157,0.4,4.5,31,0.00,,,0.00,WUHU21623XXSP,2013-06-21 18:38:00,
2013-06-21 11:44:00,83.8,49.1,29.95,NNW,337,0.0,4.5,30,0.00,,,0.00,WUHU21623XXSP,2013-06-21 18:44:00,
2013-06-21 11:45:00,83.8,49.1,29.95,NW,315,1.1,4.5,30,0.00,,,0.00,WUHU21623XXSP,2013-06-21 18:45:00,
2013-06-21 11:46:00,83.8,49.1,29.95,West,270,0.0,4.5,30,0.00,,,0.00,WUHU21623XXSP,2013-06-21 18:46:00,
2013-06-21 11:51:00,83.5,48.8,29.95,North,0,2.0,3.6,30,0.00,,,0.00,WUHU21623XXSP,2013-06-21 18:51:00,
2013-06-21 11:56:00,83.5,48.8,29.95,WNW,292,0.0,5.1,30,0.00,,,0.00,WUHU21623XXSP,2013-06-21 18:56:00,
2013-06-21 12:01:00,83.8,48.1,29.95,SSW,202,0.0,5.1,29,0.00,,,0.00,WUHU21623XXSP,2013-06-21 19:01:00,
2013-06-21 12:06:00,83.5,47.8,29.95,NE,45,0.9,5.4,29,0.00,,,0.00,WUHU21623XXSP,2013-06-21 19:06:00,
2013-06-21 12:11:00,83.8,48.1,29.95,NNE,22,2.2,5.4,29,0.00,,,0.00,WUHU21623XXSP,2013-06-21 19:11:00,
2013-06-21 12:16:00,84.0,49.3,29.95,SSE,157,1.6,2.9,30,0.00,,,0.00,WUHU21623XXSP,2013-06-21 19:16:00,
2013-06-21 12:20:00,84.0,48.2,29.95,WNW,292,0.0,4.3,29,0.00,,,0.00,WUHU21623XXSP,2013-06-21 19:20:00,
2013-06-21 12:25:00,84.4,48.5,29.95,NW,315,0.0,4.3,29,0.00,,,0.00,WUHU21623XXSP,2013-06-21 19:25:00,
2013-06-21 12:30:00,84.0,48.2,29.95,WNW,292,0.7,5.8,29,0.00,,,0.00,WUHU21623XXSP,2013-06-21 19:30:00,
2013-06-21 12:35:00,84.0,48.2,29.95,NW,315,0.0,7.4,29,0.00,,,0.00,WUHU21623XXSP,2013-06-21 19:35:00,
2013-06-21 12:40:00,84.0,48.2,29.95,West,270,3.1,7.4,29,0.00,,,0.00,WUHU21623XXSP,2013-06-21 19:40:00,
2013-06-21 12:42:00,84.0,48.2,29.95,East,90,0.0,5.6,29,0.00,,,0.00,WUHU21623XXSP,2013-06-21 19:42:00,
2013-06-21 12:48:00,84.6,48.7,29.95,SSW,202,1.8,5.4,29,0.00,,,0.00,WUHU21623XXSP,2013-06-21 19:48:00,
2013-06-21 12:53:00,84.9,49.0,29.95,ENE,67,2.2,4.5,29,0.00,,,0.00,WUHU21623XXSP,2013-06-21 19:53:00,
2013-06-21 12:58:00,85.6,49.7,29.94,NE,45,0.0,7.8,29,0.00,,,0.00,WUHU21623XXSP,2013-06-21 19:58:00,
2013-06-21 13:03:00,85.6,48.6,29.94,WNW,292,0.0,7.8,28,0.00,,,0.00,WUHU21623XXSP,2013-06-21 20:03:00,
2013-06-21 13:04:00,85.6,48.6,29.94,NE,45,3.6,7.8,28,0.00,,,0.00,WUHU21623XXSP,2013-06-21 20:04:00,
2013-06-21 13:09:00,85.6,48.6,29.94,WSW,247,2.5,6.0,28,0.00,,,0.00,WUHU21623XXSP,2013-06-21 20:09:00,
2013-06-21 13:11:00,85.6,48.6,29.95,ENE,67,6.3,6.3,28,0.00,,,0.00,WUHU21623XXSP,2013-06-21 20:11:00,
2013-06-21 13:13:00,85.6,48.6,29.94,WNW,292,1.8,6.3,28,0.00,,,0.00,WUHU21623XXSP,2013-06-21 20:13:00,
2013-06-21 13:18:00,86.2,49.1,29.94,NNW,337,4.3,6.3,28,0.00,,,0.00,WUHU21623XXSP,2013-06-21 20:18:00,
2013-06-21 13:23:00,86.2,49.1,29.94,WNW,292,0.0,8.9,28,0.00,,,0.00,WUHU21623XXSP,2013-06-21 20:23:00,
2013-06-21 13:28:00,86.4,49.2,29.94,WNW,292,0.9,8.9,28,0.00,,,0.00,WUHU21623XXSP,2013-06-21 20:28:00,
2013-06-21 13:33:00,86.5,48.3,29.94,NW,315,3.1,8.3,27,0.00,,,0.00,WUHU21623XXSP,2013-06-21 20:33:00,
2013-06-21 13:38:00,86.7,48.4,29.94,West,270,2.2,8.3,27,0.00,,,0.00,WUHU21623XXSP,2013-06-21 20:38:00,
2013-06-21 13:43:00,86.5,48.3,29.94,SW,225,8.3,8.3,27,0.00,,,0.00,WUHU21623XXSP,2013-06-21 20:43:00,
2013-06-21 13:49:00,86.2,46.9,29.94,SW,225,0.0,8.3,26,0.00,,,0.00,WUHU21623XXSP,2013-06-21 20:49:00,
2013-06-21 13:54:00,85.8,46.6,29.95,East,90,4.5,15.0,26,0.00,,,0.00,WUHU21623XXSP,2013-06-21 20:54:00,
2013-06-21 13:59:00,85.8,46.6,29.94,NW,315,0.9,15.0,26,0.00,,,0.00,WUHU21623XXSP,2013-06-21 20:59:00,
2013-06-21 14:04:00,85.8,46.6,29.94,West,270,1.1,8.5,26,0.00,,,0.00,WUHU21623XXSP,2013-06-21 21:04:00,
2013-06-21 14:09:00,85.8,47.7,29.94,SE,135,1.6,8.5,27,0.00,,,0.00,WUHU21623XXSP,2013-06-21 21:09:00,
2013-06-21 14:14:00,86.2,46.9,29.94,NE,45,1.6,8.7,26,0.00,,,0.00,WUHU21623XXSP,2013-06-21 21:14:00,
2013-06-21 14:19:00,86.0,46.8,29.94,WNW,292,2.2,8.7,26,0.00,,,0.00,WUHU21623XXSP,2013-06-21 21:19:00,
2013-06-21 14:24:00,85.8,46.6,29.94,NW,315,0.0,5.6,26,0.00,,,0.00,WUHU21623XXSP,2013-06-21 21:24:00,
2013-06-21 14:29:00,85.8,46.6,29.94,NW,315,2.5,6.0,26,0.00,,,0.00,WUHU21623XXSP,2013-06-21 21:29:00,
2013-06-21 14:34:00,85.6,46.4,29.93,ENE,67,1.1,6.0,26,0.00,,,0.00,WUHU21623XXSP,2013-06-21 21:34:00,
2013-06-21 14:39:00,85.6,46.4,29.93,West,270,0.0,5.1,26,0.00,,,0.00,WUHU21623XXSP,2013-06-21 21:39:00,
2013-06-21 14:44:00,85.8,46.6,29.93,NW,315,2.0,8.1,26,0.00,,,0.00,WUHU21623XXSP,2013-06-21 21:44:00,
2013-06-21 14:49:00,86.2,46.9,29.93,WNW,292,5.4,9.8,26,0.00,,,0.00,WUHU21623XXSP,2013-06-21 21:49:00,
2013-06-21 14:54:00,86.0,46.8,29.93,ENE,67,3.6,9.8,26,0.00,,,0.00,WUHU21623XXSP,2013-06-21 21:54:00,
2013-06-21 14:59:00,85.8,46.6,29.93,North,0,2.9,6.7,26,0.00,,,0.00,WUHU21623XXSP,2013-06-21 21:59:00,
2013-06-21 15:04:00,86.0,46.8,29.92,East,90,1.1,6.3,26,0.00,,,0.00,WUHU21623XXSP,2013-06-21 22:04:00,
2013-06-21 15:09:00,85.8,46.6,29.92,NNE,22,3.8,6.0,26,0.00,,,0.00,WUHU21623XXSP,2013-06-21 22:09:00,
2013-06-21 15:14:00,85.8,46.6,29.92,ENE,67,0.0,8.5,26,0.00,,,0.00,WUHU21623XXSP,2013-06-21 22:14:00,
2013-06-21 15:19:00,85.8,46.6,29.92,ESE,112,1.1,8.5,26,0.00,,,0.00,WUHU21623XXSP,2013-06-21 22:19:00,
2013-06-21 15:24:00,85.8,46.6,29.92,WNW,292,0.0,5.8,26,0.00,,,0.00,WUHU21623XXSP,2013-06-21 22:24:00,
2013-06-21 15:29:00,86.0,46.8,29.93,NNW,337,0.9,5.8,26,0.00,,,0.00,WUHU21623XXSP,2013-06-21 22:29:00,
2013-06-21 15:34:00,86.0,45.7,29.93,NNE,22,0.0,5.4,25,0.00,,,0.00,WUHU21623XXSP,2013-06-21 22:34:00,
2013-06-21 15:39:00,85.8,45.5,29.92,West,270,0.0,5.6,25,0.00,,,0.00,WUHU21623XXSP,2013-06-21 22:39:00,
2013-06-21 15:44:00,85.8,45.5,29.92,NW,315,0.0,9.4,25,0.00,,,0.00,WUHU21623XXSP,2013-06-21 22:44:00,
2013-06-21 15:49:00,85.6,45.4,29.92,ESE,112,0.0,10.3,25,0.00,,,0.00,WUHU21623XXSP,2013-06-21 22:49:00,
2013-06-21 15:54:00,85.6,45.4,29.92,North,0,0.0,10.3,25,0.00,,,0.00,WUHU21623XXSP,2013-06-21 22:54:00,
2013-06-21 15:59:00,85.5,45.2,29.92,NW,315,0.0,7.8,25,0.00,,,0.00,WUHU21623XXSP,2013-06-21 22:59:00,
2013-06-21 16:04:00,85.3,45.1,29.91,NNE,22,3.8,5.8,25,0.00,,,0.00,WUHU21623XXSP,2013-06-21 23:04:00,
2013-06-21 16:09:00,85.3,45.1,29.91,WNW,292,2.5,5.1,25,0.00,,,0.00,WUHU21623XXSP,2013-06-21 23:09:00,
2013-06-21 16:14:00,85.5,45.2,29.91,NNE,22,0.0,6.3,25,0.00,,,0.00,WUHU21623XXSP,2013-06-21 23:14:00,
2013-06-21 16:19:00,85.3,45.1,29.91,WSW,247,3.1,6.3,25,0.00,,,0.00,WUHU21623XXSP,2013-06-21 23:19:00,
2013-06-21 16:24:00,85.3,45.1,29.91,NE,45,0.0,6.7,25,0.00,,,0.00,WUHU21623XXSP,2013-06-21 23:24:00,
2013-06-21 16:29:00,85.3,45.1,29.91,West,270,4.0,6.7,25,0.00,,,0.00,WUHU21623XXSP,2013-06-21 23:29:00,
2013-06-21 16:34:00,85.3,45.1,29.91,NW,315,0.0,6.5,25,0.00,,,0.00,WUHU21623XXSP,2013-06-21 23:34:00,
2013-06-21 16:39:00,85.5,45.2,29.91,NW,315,0.0,4.7,25,0.00,,,0.00,WUHU21623XXSP,2013-06-21 23:39:00,
2013-06-21 16:44:00,85.3,45.1,29.91,ENE,67,0.0,4.3,25,0.00,,,0.00,WUHU21623XXSP,2013-06-21 23:44:00,
2013-06-21 16:49:00,85.3,45.1,29.91,NNW,337,0.0,5.8,25,0.00,,,0.00,WUHU21623XXSP,2013-06-21 23:49:00,
2013-06-21 16:54:00,84.9,43.7,29.91,WNW,292,2.2,5.8,24,0.00,,,0.00,WUHU21623XXSP,2013-06-21 23:54:00,
2013-06-21 16:59:00,84.9,44.8,29.91,NW,315,2.7,5.4,25,0.00,,,0.00,WUHU21623XXSP,2013-06-21 23:59:00,
2013-06-21 17:04:00,84.7,44.6,29.91,East,90,1.1,4.9,25,0.00,,,0.00,WUHU21623XXSP,2013-06-22 00:04:00,
2013-06-21 17:09:00,84.9,43.7,29.90,WNW,292,0.0,5.1,24,0.00,,,0.00,WUHU21623XXSP,2013-06-22 00:09:00,
2013-06-21 17:14:00,84.9,44.8,29.91,West,270,4.5,5.8,25,0.00,,,0.00,WUHU21623XXSP,2013-06-22 00:14:00,
2013-06-21 17:19:00,84.7,42.5,29.90,East,90,1.8,9.2,23,0.00,,,0.00,WUHU21623XXSP,2013-06-22 00:19:00,
2013-06-21 17:24:00,84.6,42.3,29.91,ESE,112,2.5,9.2,23,0.00,,,0.00,WUHU21623XXSP,2013-06-22 00:24:00,
2013-06-21 17:29:00,84.6,43.4,29.91,WNW,292,0.0,6.9,24,0.00,,,0.00,WUHU21623XXSP,2013-06-22 00:29:00,
2013-06-21 17:34:00,84.6,43.4,29.90,NW,315,3.4,4.3,24,0.00,,,0.00,WUHU21623XXSP,2013-06-22 00:34:00,
2013-06-21 17:39:00,84.6,42.3,29.90,NW,315,4.0,4.5,23,0.00,,,0.00,WUHU21623XXSP,2013-06-22 00:39:00,
2013-06-21 17:51:00,84.4,42.2,29.90,North,0,1.6,10.3,23,0.00,,,0.00,WUHU21623XXSP,2013-06-22 00:51:00,
2013-06-21 17:56:00,84.0,41.9,29.90,NW,315,0.0,10.3,23,0.00,,,0.00,WUHU21623XXSP,2013-06-22 00:56:00,
2013-06-21 18:01:00,84.0,41.9,29.89,WNW,292,2.0,5.1,23,0.00,,,0.00,WUHU21623XXSP,2013-06-22 01:01:00,
2013-06-21 18:06:00,84.0,41.9,29.90,NE,45,1.6,6.0,23,0.00,,,0.00,WUHU21623XXSP,2013-06-22 01:06:00,
2013-06-21 18:11:00,83.8,41.7,29.90,WNW,292,0.0,6.0,23,0.00,,,0.00,WUHU21623XXSP,2013-06-22 01:11:00,
2013-06-21 18:16:00,84.0,41.7,29.90,NNW,337,1.1,5.8,23,0.00,,,0.00,WUHU21623XXSP,2013-06-22 01:16:00,
2013-06-21 18:21:00,83.8,41.7,29.90,ESE,112,3.4,5.8,23,0.00,,,0.00,WUHU21623XXSP,2013-06-22 01:21:00,
2013-06-21 18:26:00,83.7,41.6,29.90,WNW,292,4.3,4.3,23,0.00,,,0.00,WUHU21623XXSP,2013-06-22 01:26:00,
2013-06-21 18:31:00,83.5,41.4,29.90,NW,315,0.0,6.0,23,0.00,,,0.00,WUHU21623XXSP,2013-06-22 01:31:00,
2013-06-21 18:36:00,83.5,41.4,29.90,WNW,292,0.0,6.0,23,0.00,,,0.00,WUHU21623XXSP,2013-06-22 01:36:00,
2013-06-21 18:41:00,83.3,41.3,29.89,North,0,0.0,3.6,23,0.00,,,0.00,WUHU21623XXSP,2013-06-22 01:41:00,
2013-06-21 18:46:00,83.1,41.1,29.90,NW,315,0.0,2.7,23,0.00,,,0.00,WUHU21623XXSP,2013-06-22 01:46:00,
2013-06-21 18:51:00,83.3,41.3,29.89,NNW,337,0.0,2.9,23,0.00,,,0.00,WUHU21623XXSP,2013-06-22 01:51:00,
2013-06-21 18:56:00,83.3,41.3,29.89,SW,225,0.0,5.4,23,0.00,,,0.00,WUHU21623XXSP,2013-06-22 01:56:00,
2013-06-21 19:01:00,83.1,43.2,29.90,West,270,0.0,5.4,25,0.00,,,0.00,WUHU21623XXSP,2013-06-22 02:01:00,
2013-06-21 19:06:00,82.9,42.0,29.90,NW,315,0.0,3.8,24,0.00,,,0.00,WUHU21623XXSP,2013-06-22 02:06:00,
2013-06-21 19:11:00,82.9,41.0,29.90,NE,45,0.0,4.3,23,0.00,,,0.00,WUHU21623XXSP,2013-06-22 02:11:00,
2013-06-21 19:16:00,83.3,41.3,29.90,South,180,0.0,4.3,23,0.00,,,0.00,WUHU21623XXSP,2013-06-22 02:16:00,
2013-06-21 19:21:00,83.1,41.1,29.90,SSE,157,0.0,3.4,23,0.00,,,0.00,WUHU21623XXSP,2013-06-22 02:21:00,
2013-06-21 19:26:00,82.6,41.7,29.90,NNW,337,0.0,3.4,24,0.00,,,0.00,WUHU21623XXSP,2013-06-22 02:26:00,
2013-06-21 19:31:00,82.2,40.4,29.90,WNW,292,0.0,2.2,23,0.00,,,0.00,WUHU21623XXSP,2013-06-22 02:31:00,
2013-06-21 19:36:00,82.0,41.3,29.90,ENE,67,0.0,1.8,24,0.00,,,0.00,WUHU21623XXSP,2013-06-22 02:36:00,
2013-06-21 19:41:00,81.3,40.7,29.90,South,180,0.0,1.3,24,0.00,,,0.00,WUHU21623XXSP,2013-06-22 02:41:00,
2013-06-21 19:46:00,80.8,41.3,29.90,West,270,0.0,2.2,25,0.00,,,0.00,WUHU21623XXSP,2013-06-22 02:46:00,
2013-06-21 19:51:00,80.2,41.9,29.90,South,180,0.0,2.2,26,0.00,,,0.00,WUHU21623XXSP,2013-06-22 02:51:00,
2013-06-21 19:56:00,79.7,42.5,29.90,SE,135,0.0,2.7,27,0.00,,,0.00,WUHU21623XXSP,2013-06-22 02:56:00,
2013-06-21 20:01:00,79.0,41.8,29.90,SE,135,0.0,2.7,27,0.00,,,0.00,WUHU21623XXSP,2013-06-22 03:01:00,
2013-06-21 20:06:00,78.4,42.4,29.90,SE,135,0.0,0.0,28,0.00,,,0.00,WUHU21623XXSP,2013-06-22 03:06:00,
2013-06-21 20:11:00,77.7,42.9,29.90,ESE,112,0.0,0.0,29,0.00,,,0.00,WUHU21623XXSP,2013-06-22 03:11:00,
2013-06-21 20:16:00,77.2,43.5,29.90,ESE,112,0.0,0.0,30,0.00,,,0.00,WUHU21623XXSP,2013-06-22 03:16:00,
2013-06-21 20:21:00,76.5,43.6,29.90,SSE,157,3.4,4.3,31,0.00,,,0.00,WUHU21623XXSP,2013-06-22 03:21:00,
2013-06-21 20:26:00,75.7,43.0,29.90,ESE,112,1.3,4.3,31,0.00,,,0.00,WUHU21623XXSP,2013-06-22 03:26:00,
2013-06-21 20:31:00,75.0,43.1,29.90,SE,135,0.0,2.2,32,0.00,,,0.00,WUHU21623XXSP,2013-06-22 03:31:00,
2013-06-21 20:36:00,74.5,42.6,29.91,SE,135,0.0,2.0,32,0.00,,,0.00,WUHU21623XXSP,2013-06-22 03:36:00,
2013-06-21 20:41:00,73.9,42.1,29.90,SE,135,0.0,0.0,32,0.00,,,0.00,WUHU21623XXSP,2013-06-22 03:41:00,
2013-06-21 20:46:00,73.4,41.6,29.91,SE,135,0.0,0.0,32,0.00,,,0.00,WUHU21623XXSP,2013-06-22 03:46:00,
2013-06-21 20:51:00,72.9,41.9,29.91,SE,135,1.6,2.2,33,0.00,,,0.00,WUHU21623XXSP,2013-06-22 03:51:00,
2013-06-21 20:56:00,72.3,41.5,29.90,SE,135,1.6,2.2,33,0.00,,,0.00,WUHU21623XXSP,2013-06-22 03:56:00,
2013-06-21 21:01:00,71.8,41.0,29.91,SE,135,1.1,1.8,33,0.00,,,0.00,WUHU21623XXSP,2013-06-22 04:01:00,
2013-06-21 21:07:00,71.4,41.5,29.91,SE,135,1.1,1.3,34,0.00,,,0.00,WUHU21623XXSP,2013-06-22 04:07:00,
2013-06-21 21:12:00,70.9,41.0,29.91,SE,135,0.0,1.3,34,0.00,,,0.00,WUHU21623XXSP,2013-06-22 04:12:00,
2013-06-21 21:17:00,70.5,41.4,29.92,SE,135,1.8,1.8,35,0.00,,,0.00,WUHU21623XXSP,2013-06-22 04:17:00,
2013-06-21 21:22:00,70.3,41.2,29.91,SE,135,1.8,2.2,35,0.00,,,0.00,WUHU21623XXSP,2013-06-22 04:22:00,
2013-06-21 21:27:00,70.0,41.6,29.92,SE,135,1.3,2.2,36,0.00,,,0.00,WUHU21623XXSP,2013-06-22 04:27:00,
2013-06-21 21:32:00,69.6,41.3,29.92,SE,135,1.1,2.0,36,0.00,,,0.00,WUHU21623XXSP,2013-06-22 04:32:00,
2013-06-21 21:37:00,69.4,41.9,29.92,SE,135,1.6,2.0,37,0.00,,,0.00,WUHU21623XXSP,2013-06-22 04:37:00,
2013-06-21 21:42:00,69.1,41.6,29.92,SE,135,1.8,2.0,37,0.00,,,0.00,WUHU21623XXSP,2013-06-22 04:42:00,
2013-06-21 21:47:00,68.9,42.1,29.92,SE,135,1.8,2.0,38,0.00,,,0.00,WUHU21623XXSP,2013-06-22 04:47:00,
2013-06-21 21:52:00,68.7,42.0,29.92,SE,135,1.6,2.0,38,0.00,,,0.00,WUHU21623XXSP,2013-06-22 04:52:00,
2013-06-21 21:57:00,68.5,42.5,29.92,SE,135,1.3,1.8,39,0.00,,,0.00,WUHU21623XXSP,2013-06-22 04:57:00,
2013-06-21 22:02:00,68.4,43.1,29.92,SE,135,2.0,2.2,40,0.00,,,0.00,WUHU21623XXSP,2013-06-22 05:02:00,
2013-06-21 22:07:00,68.2,43.0,29.92,SE,135,1.6,2.7,40,0.00,,,0.00,WUHU21623XXSP,2013-06-22 05:07:00,
2013-06-21 22:12:00,68.0,43.6,29.92,SE,135,2.0,2.7,41,0.00,,,0.00,WUHU21623XXSP,2013-06-22 05:12:00,
2013-06-21 22:17:00,67.8,43.2,29.92,SE,135,1.8,2.5,41,0.00,,,0.00,WUHU21623XXSP,2013-06-22 05:17:00,
2013-06-21 22:22:00,67.6,43.1,29.92,SE,135,2.7,2.7,41,0.00,,,0.00,WUHU21623XXSP,2013-06-22 05:22:00,
2013-06-21 22:27:00,67.6,43.7,29.92,SE,135,2.0,2.7,42,0.00,,,0.00,WUHU21623XXSP,2013-06-22 05:27:00,
2013-06-21 22:32:00,67.3,43.3,29.92,ESE,112,2.2,3.1,42,0.00,,,0.00,WUHU21623XXSP,2013-06-22 05:32:00,
2013-06-21 22:37:00,67.1,42.6,29.92,ESE,112,2.2,3.6,41,0.00,,,0.00,WUHU21623XXSP,2013-06-22 05:37:00,
2013-06-21 22:42:00,67.1,42.6,29.92,ESE,112,3.6,4.0,41,0.00,,,0.00,WUHU21623XXSP,2013-06-22 05:42:00,
2013-06-21 22:47:00,66.9,41.8,29.92,ESE,112,2.2,4.5,40,0.00,,,0.00,WUHU21623XXSP,2013-06-22 05:47:00,
2013-06-21 22:52:00,66.7,41.7,29.92,ESE,112,2.5,4.9,40,0.00,,,0.00,WUHU21623XXSP,2013-06-22 05:52:00,
2013-06-21 22:57:00,66.7,41.7,29.92,ESE,112,3.6,4.9,40,0.00,,,0.00,WUHU21623XXSP,2013-06-22 05:57:00,
2013-06-21 23:02:00,66.7,41.7,29.92,ESE,112,3.6,4.3,40,0.00,,,0.00,WUHU21623XXSP,2013-06-22 06:02:00,
2013-06-21 23:07:00,66.6,42.1,29.92,ESE,112,2.5,4.3,41,0.00,,,0.00,WUHU21623XXSP,2013-06-22 06:07:00,
2013-06-21 23:12:00,66.4,41.9,29.92,ESE,112,2.9,4.0,41,0.00,,,0.00,WUHU21623XXSP,2013-06-22 06:12:00,
2013-06-21 23:17:00,66.4,41.3,29.92,ESE,112,2.2,3.6,40,0.00,,,0.00,WUHU21623XXSP,2013-06-22 06:17:00,
2013-06-21 23:22:00,66.2,41.2,29.92,ESE,112,2.2,2.9,40,0.00,,,0.00,WUHU21623XXSP,2013-06-22 06:22:00,
2013-06-21 23:27:00,66.0,41.0,29.92,ESE,112,2.0,2.7,40,0.00,,,0.00,WUHU21623XXSP,2013-06-22 06:27:00,
2013-06-21 23:32:00,66.0,41.6,29.92,ESE,112,1.6,2.9,41,0.00,,,0.00,WUHU21623XXSP,2013-06-22 06:32:00,
2013-06-21 23:37:00,66.0,41.0,29.92,ESE,112,1.8,4.0,40,0.00,,,0.00,WUHU21623XXSP,2013-06-22 06:37:00,
2013-06-21 23:42:00,65.8,40.9,29.92,ESE,112,3.6,4.5,40,0.00,,,0.00,WUHU21623XXSP,2013-06-22 06:42:00,
2013-06-21 23:47:00,65.8,40.9,29.92,ESE,112,1.8,4.5,40,0.00,,,0.00,WUHU21623XXSP,2013-06-22 06:47:00,
2013-06-21 23:52:00,65.7,40.7,29.92,ESE,112,1.3,4.3,40,0.00,,,0.00,WUHU21623XXSP,2013-06-22 06:52:00,
2013-06-21 23:56:00,65.5,40.5,29.92,ESE,112,3.4,4.0,40,0.00,,,0.00,WUHU21623XXSP,2013-06-22 06:56:00,